(41) Daphne
ephemeris date magn radius delta ra dec elong phase
Today2 Jul 202513.53.096 AU4.082 AU06h26m+11°31'12.2°4.0°
Opposition10 Feb 202611.02.494 AU1.529 AU09h17m-00°26'164.5°6.1°
(41) Daphne - 2025-07-02
astro.vanbuitenen.nl


 
-1 year
-1 month
-1 day
Now
+1 day
+1 month
+1 year

The interactive orbit chart above shows the body's path through the solar system and its position at the given date. Green and blue lines are shown perpendicular to the ecliptic plane: Green if the path is above the ecliptic plane, blue if it is below. (Left-click and drag to rotate the view; Right-click and drag to move the view; Use scroll wheel to zoom in our out.)

The orbital elements of Daphne are:

            e (Eccentricity)                : 0.2708132
            a (Semimajor axis)              : 2.7698860
            i (Inclination)                 : 15.72196
            Ω (Longitude of ascending node) : 177.72710
            ω (Argument of perihelion)      : 46.71014
            M (Mean anomaly)                : 245.83088
            Epoch                           : 2025 May 05

            L (Longitude of perihelion)     : 223.34587
            B (Latitude of perihelion)      : 11.37543
            P (Orbital period in years)     : 4.61            
        

The light curve chart below shows the estimated development of the minor planet's magnitude.


The all-sky chart below shows the path of the minor planet over the same period as the light curve. The current position is marked yellow.





The following chart shows the path of the minor planet in the next few days. The field of view is optimized for (~10x50) binoculars and finderscopes. A more printer-friendly version of the same chart can be found below.




Ephemerides:
Date       Time       RA (2000)    DEC (2000)    delta   radius  elong  phase   PA    magn
2025-07-02 00:00 UT   06 26 54.0   +11 31 40     4.082    3.096   12.2    4.0   199   13.5 
2025-07-02 03:32 UT   06 27 07.0   +11 31 33     4.082    3.095   12.2    4.0   199   13.5 
2025-07-03 00:00 UT   06 28 22.7   +11 30 52     4.079    3.093   12.4    4.0   201   13.5 
2025-07-04 00:00 UT   06 29 51.6   +11 29 59     4.076    3.091   12.6    4.1   204   13.5 
2025-07-05 00:00 UT   06 31 20.4   +11 29 02     4.072    3.089   12.8    4.2   207   13.5 
2025-07-06 00:00 UT   06 32 49.3   +11 27 60     4.069    3.087   13.0    4.2   209   13.5 
2025-07-07 00:00 UT   06 34 18.3   +11 26 53     4.065    3.084   13.3    4.3   212   13.5 
2025-07-08 00:00 UT   06 35 47.3   +11 25 42     4.061    3.082   13.5    4.4   214   13.5 
2025-07-09 00:00 UT   06 37 16.3   +11 24 27     4.057    3.080   13.8    4.5   216   13.5 
2025-07-10 00:00 UT   06 38 45.3   +11 23 07     4.053    3.077   14.1    4.6   218   13.5 
2025-07-11 00:00 UT   06 40 14.4   +11 21 43     4.049    3.075   14.5    4.7   221   13.5 
2025-07-12 00:00 UT   06 41 43.5   +11 20 14     4.045    3.073   14.8    4.9   223   13.5 
2025-07-13 00:00 UT   06 43 12.6   +11 18 40     4.040    3.071   15.2    5.0   224   13.5 
2025-07-14 00:00 UT   06 44 41.7   +11 17 02     4.035    3.068   15.5    5.1   226   13.5 
2025-07-15 00:00 UT   06 46 10.8   +11 15 20     4.031    3.066   15.9    5.2   228   13.5 
2025-07-16 00:00 UT   06 47 39.9   +11 13 33     4.026    3.064   16.3    5.4   230   13.5 
2025-07-17 00:00 UT   06 49 09.1   +11 11 41     4.021    3.061   16.7    5.5   231   13.5 
2025-07-18 00:00 UT   06 50 38.2   +11 09 45     4.015    3.059   17.1    5.6   233   13.5 
2025-07-19 00:00 UT   06 52 07.3   +11 07 45     4.010    3.057   17.6    5.8   234   13.5 
2025-07-20 00:00 UT   06 53 36.4   +11 05 40     4.004    3.054   18.0    5.9   236   13.5 
2025-07-21 00:00 UT   06 55 05.6   +11 03 31     3.999    3.052   18.4    6.0   237   13.5 
2025-07-22 00:00 UT   06 56 34.6   +11 01 17     3.993    3.050   18.9    6.2   238   13.5 
2025-07-23 00:00 UT   06 58 03.7   +10 58 58     3.987    3.047   19.4    6.3   240   13.5 
2025-07-24 00:00 UT   06 59 32.7   +10 56 35     3.981    3.045   19.8    6.5   241   13.5 
2025-07-25 00:00 UT   07 01 01.7   +10 54 08     3.975    3.042   20.3    6.6   242   13.5 


    Terminology:
            
    delta:  distance between minor planet and earth in AU
    radius: distance between minor planet and sun in AU
    magn:   magnitude (brightness) estimate    
    ra:     right ascension in hours (24h = 360deg)
    dec:    declination in degrees
    elong:  elongation in degrees (angle sun-earth-minor planet)    
    phase:  phase angle in degrees (angle sun-minor planet-earth)        
    AU:     Astronomical Unit (mean distance between earth and sun: 149597870.7 km
    

Orbital elements provided by the MPC (Minor Planet Center).
Calculations by a modified version of AAPlus, a C# implementation of the AA+ project by PJ Naughter from the algorithms presented in the book "Astronomical Algorithms" by Jean Meeus.
NGC2000 dso catalog and star labels from VizieR as provided by the Strasbourg astronomical Data Center.
Tycho2 catalog from the ESO archive.